Location: ??????
(55.2000°N, 38.3000°E)
Time: 18:00:07
(UTC+00:00)

USA 59 Rocket - Pass Details

Date: 15 November 2025
Orbit: 370 x 1678 km, 63.3° (Epoch: 14 December)

Event Time Altitude Azimuth Distance (km) Brightness Sun altitude
Exits shadow 04:15:35 - 309° (NW) 1,535 1.5 -6.4°
Reaches altitude 10° 04:16:03 10° 315° (NW) 1,385 1.3 -6.3°
Maximum altitude 04:18:14 18° 3° (N) 1,021 1.0 -6.1°
Drops below altitude 10° 04:20:32 10° 50° (NE) 1,484 2.4 -5.8°
Sets 04:23:13 0° 70° (ENE) 2,479 3.9 -5.4°
